Weather History for Crossville, TN

Change the Weather History Date:

Saturday, October 5, 2013

  Actual Average Record
Temperature  
Mean Temperature 71 °F 60 °F  
Max Temperature 81 °F 71 °F 86 °F (1954)
Min Temperature 61 °F 49 °F 29 °F (1968)
Degree Days  
Heating Degree Days 0    
Month to date heating degree days 0  
Since 1 July heating degree days 15  
Cooling Degree Days 6    
Month to date cooling degree days 25  
Year to date cooling degree days 918  
Growing Degree Days 20 (Base 50)    
Moisture  
Dew Point 62 °F    
Average Humidity 76    
Maximum Humidity 97    
Minimum Humidity 54    
Precipitation  
Precipitation 0.00 in 0.10 in 2.44 in (1995)
Month to date precipitation 0.01 0.53  
Year to date precipitation 49.66 42.53  
Sea Level Pressure  
Sea Level Pressure 30.10 in    
Wind  
Wind Speed 3 mph (South)    
Max Wind Speed 10 mph    
Max Gust Speed 15 mph    
Visibility 6 miles    
Events      
T = Trace of Precipitation, MM = Missing Value Source: NWS Daily Summary

Daily Weather History Graph

Daily Weather History Graph

Search for Another Location

Airport:

Trip Planner

Search our weather history database for the weather conditions in past years. The results will help you decide how hot, cold, wet, or windy it might be!

Date:

Astronomy

Oct. 05, 2013 Rise Set
Actual Time 6:38 AM CDT 6:17 PM CDT
Civil Twilight 6:13 AM CDT 6:43 PM CDT
Nautical Twilight 5:43 AM CDT 7:13 PM CDT
Astronomical Twilight 5:13 AM CDT 7:42 PM CDT
Moon 7:14 AM CDT (10/5) 6:39 PM CDT (10/5)
Length of Visible Light 12h 30m
Length of Day
11h 39m
New Moon, 1% of the Moon is Illuminated
Oct 5
New Moon
Oct 11
First Quarter
Oct 18
Full
Oct 26
Last Quarter
Nov 3
New

Hourly Weather History & Observations

Time (CDT) Temp. Heat Index Dew Point Humidity Pressure Visibility Wind Dir Wind Speed Gust Speed Precip Events Conditions
12:07 AM 62.6 °F - 60.8 °F 94% 30.17 in 1.8 mi Calm Calm - N/A   Clear
12:17 AM 62.6 °F - 60.8 °F 94% 30.17 in 3.0 mi Calm Calm - N/A   Clear
12:41 AM 62.6 °F - 60.8 °F 94% 30.17 in 2.0 mi Calm Calm - N/A   Clear
12:53 AM 63.0 °F - 60.1 °F 90% 30.12 in 1.8 mi Calm Calm - N/A   Clear
12:58 AM 62.6 °F - 60.8 °F 94% 30.17 in 3.0 mi Calm Calm - N/A   Clear
1:06 AM 62.6 °F - 60.8 °F 94% 30.17 in 2.5 mi Calm Calm - N/A   Clear
1:17 AM 62.6 °F - 60.8 °F 94% 30.17 in 3.0 mi Calm Calm - N/A   Clear
1:53 AM 62.1 °F - 60.1 °F 93% 30.12 in 2.5 mi Calm Calm - N/A   Clear
2:08 AM 62.6 °F - 59.0 °F 88% 30.17 in 4.0 mi Calm Calm - N/A   Clear
2:53 AM 61.0 °F - 59.0 °F 93% 30.11 in 5.0 mi Calm Calm - 0.01 in   Clear
3:53 AM 61.0 °F - 59.0 °F 93% 30.12 in 2.0 mi Calm Calm - N/A   Clear
4:05 AM 60.8 °F - 59.0 °F 94% 30.16 in 5.0 mi Calm Calm - N/A   Clear
4:53 AM 62.1 °F - 59.0 °F 90% 30.12 in 5.0 mi Calm Calm - N/A   Partly Cloudy
5:53 AM 62.1 °F - 59.0 °F 90% 30.13 in 4.0 mi Calm Calm - N/A   Partly Cloudy
6:53 AM 64.0 °F - 60.1 °F 87% 30.13 in 3.0 mi Calm Calm - N/A   Overcast
7:00 AM 64.4 °F - 60.8 °F 88% 30.17 in 2.0 mi Calm Calm - N/A   Mostly Cloudy
7:07 AM 64.4 °F - 59.0 °F 83% 30.17 in 1.8 mi Calm Calm - N/A   Haze
7:14 AM 64.4 °F - 60.8 °F 88% 30.17 in 3.0 mi Calm Calm - N/A   Haze
7:53 AM 70.0 °F - 63.0 °F 78% 30.12 in 9.0 mi Calm Calm - N/A   Clear
8:53 AM 73.9 °F - 64.0 °F 71% 30.12 in 10.0 mi South 4.6 mph - N/A   Clear
9:53 AM 75.9 °F - 64.9 °F 69% 30.12 in 10.0 mi Variable 4.6 mph - N/A   Partly Cloudy
10:53 AM 78.1 °F - 64.0 °F 62% 30.12 in 10.0 mi Variable 5.8 mph - N/A   Clear
11:53 AM 80.1 °F 81.7 °F 64.0 °F 58% 30.10 in 10.0 mi SE 8.1 mph - N/A   Clear
12:53 PM 80.1 °F 81.7 °F 64.0 °F 58% 30.08 in 10.0 mi Variable 5.8 mph - N/A   Partly Cloudy
1:53 PM 80.1 °F 81.5 °F 63.0 °F 56% 30.06 in 10.0 mi Variable 4.6 mph - N/A   Scattered Clouds
2:53 PM 80.1 °F 81.2 °F 62.1 °F 54% 30.04 in 10.0 mi SSE 8.1 mph - N/A   Clear
3:53 PM 80.1 °F 81.2 °F 62.1 °F 54% 30.02 in 10.0 mi Variable 5.8 mph - N/A   Clear
4:53 PM 79.0 °F - 63.0 °F 58% 30.02 in 10.0 mi South 5.8 mph - N/A   Partly Cloudy
5:53 PM 75.9 °F - 64.0 °F 67% 30.03 in 10.0 mi South 3.5 mph - N/A   Clear
6:53 PM 71.1 °F - 64.9 °F 81% 30.04 in 9.0 mi Calm Calm - N/A   Clear
7:53 PM 71.1 °F - 64.0 °F 78% 30.03 in 10.0 mi South 4.6 mph - N/A   Clear
8:53 PM 70.0 °F - 63.0 °F 78% 30.02 in 10.0 mi South 4.6 mph - N/A   Clear
9:53 PM 69.1 °F - 62.1 °F 78% 30.01 in 10.0 mi Calm Calm - N/A   Clear
10:53 PM 70.0 °F - 61.0 °F 73% 30.00 in 10.0 mi South 5.8 mph - N/A   Clear
11:53 PM 71.1 °F - 61.0 °F 70% 29.97 in 10.0 mi South 4.6 mph - N/A   Clear